Weather History for LEGR - March, 2013

Change the Weather History Date:

Thursday, March 14, 2013

  Actual Average Record
Temperature  
Mean Temperature 42 °F -  
Max Temperature 55 °F 66 °F 80 °F (2009)
Min Temperature 28 °F 40 °F 28 °F (2013)
Degree Days  
Heating Degree Days 24    
Moisture  
Dew Point 28 °F    
Average Humidity 57    
Maximum Humidity 100    
Minimum Humidity 24    
Precipitation  
Precipitation 0.00 in - - ()
Sea Level Pressure  
Sea Level Pressure 30.05 in    
Wind  
Wind Speed 3 mph ()    
Max Wind Speed 13 mph    
Max Gust Speed -    
Visibility 7.8 miles    
Events      
Averages and records for this station are not official NWS values.
T = Trace of Precipitation, MM = Missing Value Source: Averaged Metar Reports

Daily Weather History Graph

Daily Weather History Graph

Search for Another Location

Airport or City:

Trip Planner

Search our weather history database for the weather conditions in past years. The results will help you decide how hot, cold, wet, or windy it might be!

Date:

Astronomy

Mar. 14, 2013 Rise Set
Actual Time 7:27 AM CET 7:21 PM CET
Civil Twilight 7:01 AM CET 7:47 PM CET
Nautical Twilight 6:31 AM CET 8:17 PM CET
Astronomical Twilight 6:01 AM CET 8:48 PM CET
Moon 8:37 AM CET (3/14) 10:18 PM CET (3/14)
Length of Visible Light 12h 45m
Length of Day
11h 53m
Waxing Crescent, 7% of the Moon is Illuminated
Mar 14
Waxing Crescent
Mar 19
First Quarter
Mar 27
Full
Apr 3
Last Quarter
Apr 10
New

Hourly Weather History & Observations

Time (CET) Temp. Windchill Dew Point Humidity Pressure Visibility Wind Dir Wind Speed Gust Speed Precip Events Conditions
1:00 AM 38 °F - 28 °F 57% 30.04 in 19 mi WNW 3.5 mph - -  
6:00 AM 30.2 °F - 28.4 °F 93% 30.01 in 6.2 mi Calm Calm - N/A   Partly Cloudy
6:30 AM 28.4 °F - 26.6 °F 93% 30.01 in 6.2 mi Calm Calm - N/A   Partly Cloudy
7:00 AM 28 °F - 25 °F 83% 30.12 in 16 mi Calm Calm - -  
7:00 AM 28.4 °F - 28.4 °F 100% 30.01 in 6.2 mi Calm Calm - N/A   Partly Cloudy
7:30 AM 28.4 °F - 26.6 °F 93% 30.01 in 6.2 mi Variable 2.3 mph - N/A   Partly Cloudy
8:00 AM 30.2 °F 26.7 °F 28.4 °F 93% 30.04 in 6.2 mi West 3.5 mph - N/A   Partly Cloudy
8:30 AM 33.8 °F - 30.2 °F 87% 30.04 in 6.2 mi Variable 2.3 mph - N/A   Partly Cloudy
9:00 AM 39.2 °F - 30.2 °F 70% 30.04 in 6.2 mi Calm Calm - N/A   Partly Cloudy
9:30 AM 41.0 °F - 28.4 °F 61% 30.06 in 6.2 mi Calm Calm - N/A   Partly Cloudy
10:00 AM 41.0 °F - 28.4 °F 61% 30.06 in 6.2 mi Variable 1.2 mph - N/A   Partly Cloudy
11:00 AM 48.2 °F - 28.4 °F 46% 30.06 in 6.2 mi Calm Calm - N/A   Partly Cloudy
11:30 AM 46.4 °F 42.9 °F 24.8 °F 43% 30.06 in 6.2 mi NE 6.9 mph - N/A   Partly Cloudy
12:00 PM 48.2 °F - 26.6 °F 43% 30.06 in 6.2 mi North 6.9 mph - N/A   Partly Cloudy
12:30 PM 50.0 °F - 26.6 °F 40% 30.06 in 6.2 mi NNE 8.1 mph - N/A   Partly Cloudy
1:00 PM 51 °F - 25 °F 24% 30.05 in 19 mi NNE 5.8 mph - -  
1:00 PM 50.0 °F - 30.2 °F 47% 30.04 in 6.2 mi Variable 5.8 mph - N/A   Partly Cloudy
1:30 PM 51.8 °F - 30.2 °F 44% 30.04 in - Variable 2.3 mph - N/A   Clear
2:00 PM 51.8 °F - 21.2 °F 30% 30.04 in 6.2 mi Variable 4.6 mph - N/A   Partly Cloudy
2:30 PM 53.6 °F - 26.6 °F 35% 30.04 in 6.2 mi Variable 5.8 mph - N/A   Partly Cloudy
3:00 PM 53.6 °F - 28.4 °F 38% 30.01 in 6.2 mi Variable 4.6 mph - N/A   Partly Cloudy
3:30 PM 55.4 °F - 28.4 °F 36% 30.01 in 6.2 mi Variable 2.3 mph - N/A   Partly Cloudy
4:00 PM 53.6 °F - 24.8 °F 33% 30.01 in 6.2 mi NE 6.9 mph - N/A   Partly Cloudy
4:30 PM 53.6 °F - 21.2 °F 28% 30.01 in 6.2 mi Variable 2.3 mph - N/A   Partly Cloudy
5:00 PM 53.6 °F - 26.6 °F 35% 30.01 in 6.2 mi NNW 11.5 mph - N/A   Partly Cloudy
5:30 PM 53.6 °F - 24.8 °F 33% 30.04 in 6.2 mi NNW 11.5 mph - N/A   Partly Cloudy
6:00 PM 51.8 °F - 26.6 °F 38% 30.04 in 6.2 mi North 12.7 mph - N/A   Partly Cloudy
7:00 PM 50 °F - 27 °F 27% 30.06 in 19 mi NNW 8.1 mph - -   Scattered Clouds
7:00 PM 50.0 °F - 28.4 °F 43% 30.04 in 6.2 mi North 8.1 mph - N/A   Partly Cloudy
7:30 PM 48.2 °F - 28.4 °F 46% 30.06 in 6.2 mi North 4.6 mph - N/A   Partly Cloudy
8:00 PM 46.4 °F 43.5 °F 32.0 °F 57% 30.06 in 6.2 mi North 5.8 mph - N/A   Partly Cloudy
8:30 PM 42.8 °F - 32.0 °F 66% 30.06 in - Calm Calm - N/A   Clear
9:00 PM 41.0 °F - 33.8 °F 76% 30.09 in - Variable 1.2 mph - N/A   Clear
9:30 PM 39.2 °F - 33.8 °F 81% 30.09 in - Variable 2.3 mph - N/A   Clear
10:00 PM 39.2 °F 37.0 °F 32.0 °F 75% 30.09 in - SSW 3.5 mph - N/A   Clear
10:30 PM 37.4 °F - 32.0 °F 81% 30.09 in - Variable 2.3 mph - N/A   Clear
11:00 PM 37.4 °F - 32.0 °F 81% 30.09 in - Variable 1.2 mph - N/A   Clear